EDT,Max TemperatureF,Mean TemperatureF,Min TemperatureF,Max Dew PointF,MeanDew PointF,Min DewpointF,Max Humidity, Mean Humidity, Min Humidity, Max Sea Level PressureIn, Mean Sea Level PressureIn, Min Sea Level PressureIn, Max VisibilityMiles, Mean VisibilityMiles, Min VisibilityMiles, Max Wind SpeedMPH, Mean Wind SpeedMPH, Max Gust SpeedMPH,PrecipitationIn, CloudCover, Events, WindDirDegrees
2013-10-1,81,62,45,56,49,43,93,66,32,29.98,29.93,29.87,10,10,10,13,4,17,0.00,0,,336
2013-10-2,81,66,51,57,55,48,93,67,42,29.98,29.90,29.86,10,10,8,16,5,23,0.00,0,,306
2013-10-3,78,65,52,54,48,42,93,63,28,30.11,30.06,29.99,10,10,8,8,3,,0.01,0,,306
2013-10-4,64,58,52,57,53,46,90,81,62,30.12,30.08,30.06,10,9,2,7,2,,0.21,7,Rain,322
2013-10-5,69,64,59,59,56,55,93,78,63,30.14,30.11,30.08,10,10,4,6,1,,0.02,8,Rain,41
2013-10-6,61,57,53,59,54,50,97,91,87,30.25,30.19,30.13,10,5,2,9,2,,0.37,8,Rain,52
2013-10-7,78,66,55,67,58,52,100,89,64,30.15,29.98,29.80,10,4,0,22,3,34,0.33,8,Fog-Rain,211
2013-10-8,66,55,41,50,42,35,89,63,34,30.40,30.20,29.94,10,10,10,15,6,17,0.01,0,,329
2013-10-9,64,50,37,44,40,36,93,72,44,30.50,30.44,30.40,10,10,9,8,2,,0.00,0,,10
2013-10-10,60,50,39,49,44,37,93,80,55,30.39,30.30,30.21,10,10,10,6,1,,0.00,0,,6
2013-10-11,73,59,46,48,43,24,93,68,17,30.19,30.16,30.12,10,10,10,10,2,,0.00,2,,358
2013-10-12,57,50,44,53,50,42,94,89,82,30.42,30.33,30.18,10,8,3,9,3,,0.01,6,Rain,32
2013-10-13,57,48,39,49,45,37,97,83,64,30.46,30.43,30.40,10,9,1,8,3,,0.00,4,,18
2013-10-14,68,50,35,46,40,32,97,71,36,30.42,30.34,30.26,10,9,6,8,1,,0.00,1,,151
2013-10-15,68,58,50,53,50,46,93,75,57,30.29,30.24,30.19,10,10,9,6,2,,0.00,6,,101
2013-10-16,61,54,48,52,49,45,97,81,59,30.19,30.08,29.94,10,8,1,5,1,,0.00,5,,24
2013-10-17,75,60,46,57,51,45,93,74,40,29.92,29.83,29.73,10,10,9,12,3,18,0.00,3,Rain,249
2013-10-18,66,54,44,60,49,39,93,72,43,29.93,29.75,29.61,10,9,6,20,7,26,0.04,3,Rain,246
2013-10-19,68,52,37,46,39,35,96,64,33,29.99,29.90,29.75,10,10,8,10,2,,0.00,2,,196
2013-10-20,62,50,37,49,37,29,86,59,31,30.04,29.86,29.71,10,10,10,18,7,31,0.00,1,Rain,287
2013-10-21,68,52,37,41,37,33,86,60,31,30.13,30.06,30.00,10,10,10,12,4,18,0.00,1,,244
2013-10-22,66,52,41,48,42,35,92,69,48,29.99,29.83,29.73,10,10,6,13,5,21,0.00,2,,221
2013-10-23,52,42,33,35,32,28,92,64,40,29.82,29.71,29.61,10,10,10,10,2,,0.00,3,,307
2013-10-24,54,44,35,33,27,20,79,50,29,29.91,29.79,29.67,10,10,10,21,7,31,0.00,3,,277
2013-10-25,51,40,28,33,27,23,85,62,35,30.17,30.05,29.92,10,10,10,16,6,23,0.00,2,,311
2013-10-26,55,40,25,33,25,22,89,57,28,30.17,30.04,29.88,10,10,10,18,4,31,0.00,2,,206
2013-10-27,55,45,35,34,30,25,76,53,34,30.09,29.92,29.81,10,10,10,20,7,28,0.00,4,Rain,273
2013-10-28,59,42,28,33,28,23,89,62,35,30.36,30.18,30.09,10,10,10,20,4,31,0.00,1,,312
2013-10-29,50,36,25,25,19,12,85,57,24,30.48,30.41,30.37,10,10,10,7,3,,0.00,0,,312
2013-10-30,55,42,30,36,30,20,89,66,49,30.37,30.28,30.21,10,10,9,10,2,,0.00,3,Rain,304
2013-10-31,62,46,30,57,45,28,97,90,74,30.25,30.08,29.79,10,4,0,14,3,,0.28,7,Fog-Rain,153